Regional Weather Roundup
Issued by NWS Cleveland, OH

Home | Current Version | Previous Version | Graphics & Text | Print | Product List | Glossary On
Versions: 1 2 3 4 5 6 7 8 9 10 11 12 13 14 15 16 17 18 19 20 21 22 23 24 25 26 27 28 29 30 31 32 33 34 35 36 37 38 39 40 41 42 43 44 45 46 47 48 49 50
000
ASUS41 KCLE 230802
RWRCLE
OHIO REGIONAL WEATHER ROUNDUP
NATIONAL WEATHER SERVICE CLEVELAND, OH
400 AM EDT WED APR 23 2014

NOTE: "FAIR" INDICATES FEW OR NO CLOUDS BELOW 12,000 FEET WITH NO
SIGNIFICANT WEATHER AND/OR OBSTRUCTIONS TO VISIBILITY.

OHZ001>008-015>018-024>027-034-035-043-044-230900-
   NORTHWEST OHIO

CITY           SKY/WX    TMP DP  RH WIND       PRES   REMARKS
DEFIANCE       CLEAR     38  27  64 N12       30.00R
FINDLAY        CLEAR     36  29  75 NW6       29.96R
TOLEDO EXPRESS CLEAR     37  27  67 NW10      29.98R
TOLEDO EXEC    CLEAR     38  27  64 NW13      29.98S
LIMA           CLEAR     37  30  75 NW8       29.97R
$$

OHZ009>014-019>023-028>033-038-089-230900-
   NORTHEAST OHIO

CITY           SKY/WX    TMP DP  RH WIND       PRES   REMARKS
CLE-HOPKINS    CLOUDY    42  31  64 NW14      29.94R
CLE-LAKEFRONT  CLOUDY    40  35  83 NW16      29.90S
CUY CO. ARPT   NOT AVBL
LORAIN-ELYRIA  CLOUDY    43  32  65 N15       29.92S
ASHTABULA      CLOUDY    37  31  78 NW12G24   29.88R
AKRON-CANTON   CLOUDY    41  32  70 NW12      29.88S
WOOSTER        CLOUDY    41  32  70 NW9       29.90S
MANSFIELD      CLOUDY    40  31  70 NW14G21   29.91S
YOUNGSTOWN     CLOUDY    38  32  79 NW14      29.86R
$$

OHZ042-051>053-060>062-070>072-077>081-230900-
  SOUTHWEST OHIO

CITY           SKY/WX    TMP DP  RH WIND       PRES   REMARKS
CINC-COVINGTON CLEAR     42  31  64 NW7       29.99S
CINC-LUNKEN    CLEAR     41  31  67 CALM      30.01R
HAMILTON       CLEAR     39  32  76 NW6       30.00S
DAYTON         CLEAR     40  30  67 NW8       29.99R
WRIGHT-PAT AFB CLEAR     41  30  65 NW8       29.98R
DAYTON GENERAL CLEAR     41  30  65 N8        29.97R
WILMINGTON     CLEAR     40  29  64 NW7       29.97R
$$

OHZ036-037-039>041-045>050-054>059-063>069-073>076-082>088-230900-
  CENTRAL AND SOUTHEAST OHIO

CITY           SKY/WX    TMP DP  RH WIND       PRES   REMARKS
COLUMBUS       PTCLDY    44  30  57 N10       29.93S
OSU AIRPORT    CLEAR     39  30  70 NW6       29.94S
BOLTON FIELD   NOT AVBL
RICKENBACK AFB NOT AVBL
NEWARK         CLOUDY    44  29  55 NW6       29.92R
MARION         CLEAR     39  28  64 N10       29.94S
LANCASTER      CLOUDY    42  31  64 NW6       29.94R
ZANESVILLE     CLOUDY    44  31  60 NW9       29.90R
NEW PHILLY     CLOUDY    43  30  60 NW14G22   29.90R
$$



USA.gov is the U.S. government's official web portal to all federal, state and local government web resources and services.